Overview Statistics Trail Chart Weather Telemetry Raw packets
 

This is the latest recevied weather packets stored in our database for station/object DB0OHL. If no packets are shown the sender has not sent any weather packets the latest 10 day(s).

<< 39 40 41 42 43 44 45 >>
Time Temp. Humidity Pressure Rain* Wind** Luminosity Snow
1777215355 14.44° C 51% 1023.2 hPa 0 mm - - -
1777214753 14.44° C 51% 1023.3 hPa 0 mm - - -
1777214150 14.44° C 52% 1023.3 hPa 0 mm - - -
1777213548 13.89° C 51% 1023.5 hPa 0 mm - - -
1777212945 15° C 51% 1023.5 hPa 0 mm - - -
1777212342 15.56° C 48% 1023.5 hPa 0 mm - - -
1777211740 15° C 48% 1023.6 hPa 0 mm - - -
1777211137 15° C 48% 1023.7 hPa 0 mm - - -
1777210535 14.44° C 50% 1023.7 hPa 0 mm - - -
1777209933 15° C 49% 1023.7 hPa 0 mm - - -
1777209330 15° C 51% 1023.9 hPa 0 mm - - -
1777208727 15° C 53% 1023.9 hPa 0 mm - - -
1777208125 14.44° C 53% 1023.9 hPa 0 mm - - -
1777207522 14.44° C 56% 1023.9 hPa 0 mm - - -
1777206920 13.89° C 57% 1023.9 hPa 0 mm - - -
1777206317 15° C 54% 1024.1 hPa 0 mm - - -
1777205715 15.56° C 53% 1024.1 hPa 0 mm - - -
1777205173 15.56° C 56% 1024.1 hPa 0 mm - - -
1777204570 15° C 57% 1024.1 hPa 0 mm - - -
1777203967 15° C 57% 1024.2 hPa 0 mm - - -
1777203365 14.44° C 56% 1024.2 hPa 0 mm - - -
1777202762 13.89° C 58% 1024.2 hPa 0 mm - - -
1777202160 13.33° C 58% 1024.3 hPa 0 mm - - -
1777201557 14.44° C 59% 1024.4 hPa 0 mm - - -
1777200955 13.89° C 58% 1024.5 hPa 0 mm - - -

* Rain latest hour (hover to see other rain measurements)
** Current wind speed in m/s (hover to see current wind gust speed)